Flag Weather past 2 weeks in Rodgau, Hesse, Germany

Now
39 °F

Passing clouds.


Feels Like: 39 °F
Forecast: 33 / 43 °F
Wind: 2 mph from Northeast

Location: Frankfurt / M-Flughafen

Current Time: Nov 24, 2014 at 10:57:54 PM

Latest Report: Nov 24, 2014 at 9:00 PM


Visibility: 19 mi

Pressure: 30.34 "Hg

Humidity: 97%

Dew point: 38 °F

Location of RodgauLocation

Historic Weather in Rodgau — Graph

°F

Rodgau temperature yesterday

Maximum temperature yesterday: 49 °F (at 3:00 PM)
Minimum temperature yesterday: 40 °F (at 5:00 AM)
Average temperature yesterday: 42 °F

Past Weeks' High & Low Weather Summary

 TemperatureHumidityPressure
High54 °F (Nov 14, 3:00 PM)100% (Nov 12, 9:00 PM)30.35 "Hg (Nov 12, 9:00 PM)
Low36 °F (Nov 21, 8:00 AM)65% (Nov 21, 3:00 PM)29.54 "Hg (Nov 16, 6:00 AM)
Average46 °F91%29.94 "Hg
* Reported Nov 9 9:00 PM — Nov 24 9:00 PM, Rodgau, Weather by CustomWeather, © 2014

Note: Actual official high and low records may vary slightly from our data, if they occured in-between our weather recording intervals... More about our weather records

Advertising

Rodgau weather history for previous 24 hours

 ConditionsComfort  
Time TempWeatherWind HumidityBarometerVisibility
9:00 PM
Nov 24
39 °FPassing clouds.2 mph97%30.34 "Hg19 mi
8:00 PM42 °FPassing clouds.2 mph90%30.33 "Hg19 mi
7:00 PM42 °FPassing clouds.2 mph93%30.33 "Hg19 mi
6:00 PM44 °FPassing clouds.2 mph93%30.32 "Hg19 mi
5:00 PM45 °FPassing clouds.2 mph90%30.30 "Hg19 mi
3:00 PM49 °FPartly sunny.2 mph82%30.28 "Hg12 mi
2:00 PM48 °FOvercast.2 mph85%30.27 "Hg11 mi
1:00 PM47 °FOvercast.1 mph87%30.27 "Hg8 mi
12:00 PM45 °FOvercast.1 mph93%30.27 "Hg9 mi
11:00 AM44 °FLow clouds.1 mph95%30.26 "Hg7 mi
9:00 AM42 °FFog.2 mph99%30.22 "Hg4 mi
8:00 AM42 °FFog.3 mph100%30.19 "Hg4 mi
7:00 AM41 °FFog.1 mph100%30.16 "Hg4 mi
6:00 AM38 °FFog.1 mph100%30.15 "Hg1 mi
5:00 AM40 °FFog.1 mph100%30.13 "Hg4 mi
3:00 AM41 °FFog.1 mph100%30.12 "Hg2 mi
2:00 AM41 °FFog.1 mph100%30.13 "Hg3 mi
1:00 AM41 °FFog.1 mph100%30.12 "Hg1 mi
12:00 AM41 °FFog.1 mph100%30.13 "Hg1 mi
11:00 PM
Nov 23
41 °FFog.1 mph100%30.12 "Hg1 mi
Weather by CustomWeather, © 2014

See weather overviewHow to use our weather pages